| time (UTC) | temp F | wind direction | speed knots | gust knots | rain 1hr in | rain 24hr in | rain mn in | humidity % | barometer mb |
| 20260509224505 | 61 | 273 | 7.8 | 12.2 | 0.00 | 0.00 | 0.00 | 34 | 1013.1 |
| 20260509223505 | 62 | 302 | 7.0 | 12.2 | 0.00 | 0.00 | 0.00 | 33 | 1013.1 |
| 20260509223006 | 62 | 299 | 7.8 | 12.2 | 0.00 | 0.00 | 0.00 | 33 | 1013.1 |
| 20260509222505 | 61 | 322 | 6.1 | 12.2 | 0.00 | 0.00 | 0.00 | 35 | 1013.1 |
| 20260509222005 | 61 | 316 | 5.2 | 11.3 | 0.00 | 0.00 | 0.00 | 35 | 1013.1 |
| 20260509221006 | 63 | 321 | 8.7 | 15.6 | 0.00 | 0.00 | 0.00 | 34 | 1013.1 |
| 20260509215505 | 63 | 269 | 8.7 | 20.0 | 0.00 | 0.00 | 0.00 | 32 | 1012.8 |
| 20260509215005 | 63 | 304 | 12.2 | 20.0 | 0.00 | 0.00 | 0.00 | 31 | 1012.8 |
| 20260509214505 | 63 | 307 | 10.4 | 17.4 | 0.00 | 0.00 | 0.00 | 30 | 1012.8 |
| 20260509214005 | 63 | 290 | 13.0 | 17.4 | 0.00 | 0.00 | 0.00 | 33 | 1012.7 |
| 20260509213006 | 62 | 292 | 13.9 | 19.1 | 0.00 | 0.00 | 0.00 | 32 | 1012.7 |
| 20260509212505 | 63 | 291 | 11.3 | 17.4 | 0.00 | 0.00 | 0.00 | 32 | 1012.7 |
| 20260509212005 | 62 | 287 | 11.3 | 21.7 | 0.00 | 0.00 | 0.00 | 32 | 1012.7 |
| 20260509211005 | 61 | 297 | 8.7 | 17.4 | 0.00 | 0.00 | 0.00 | 34 | 1012.7 |
| 20260509210005 | 60 | 273 | 11.3 | 17.4 | 0.00 | 0.00 | 0.00 | 34 | 1012.6 |
| 20260509205005 | 61 | 302 | 10.4 | 14.8 | 0.00 | 0.00 | 0.00 | 33 | 1012.6 |
| 20260509204505 | 61 | 310 | 9.6 | 17.4 | 0.00 | 0.00 | 0.00 | 33 | 1012.6 |
| 20260509204005 | 61 | 273 | 9.6 | 17.4 | 0.00 | 0.00 | 0.00 | 34 | 1012.6 |
| 20260509203505 | 61 | 282 | 11.3 | 20.9 | 0.00 | 0.00 | 0.00 | 33 | 1012.7 |
| 20260509203005 | 60 | 296 | 10.4 | 20.9 | 0.00 | 0.00 | 0.00 | 35 | 1012.7 |
| 20260509202505 | 61 | 283 | 11.3 | 18.2 | 0.00 | 0.00 | 0.00 | 34 | 1012.7 |
| 20260509201505 | 60 | 299 | 10.4 | 15.6 | 0.00 | 0.00 | 0.00 | 35 | 1012.6 |
| 20260509201005 | 60 | 291 | 8.7 | 15.6 | 0.00 | 0.00 | 0.00 | 33 | 1012.7 |
| 20260509200005 | 61 | 304 | 10.4 | 14.8 | 0.00 | 0.00 | 0.00 | 35 | 1012.5 |
| 20260509195505 | 60 | 305 | 10.4 | 14.8 | 0.00 | 0.00 | 0.00 | 36 | 1012.5 |
| 20260509195005 | 60 | 314 | 10.4 | 17.4 | 0.00 | 0.00 | 0.00 | 35 | 1012.5 |
| 20260509194505 | 59 | 311 | 7.8 | 19.1 | 0.00 | 0.00 | 0.00 | 37 | 1012.5 |
| 20260509194005 | 59 | 320 | 9.6 | 19.1 | 0.00 | 0.00 | 0.00 | 37 | 1012.6 |
| 20260509193505 | 59 | 315 | 11.3 | 17.4 | 0.00 | 0.00 | 0.00 | 36 | 1012.5 |
| 20260509193005 | 59 | 312 | 10.4 | 15.6 | 0.00 | 0.00 | 0.00 | 36 | 1012.4 |
| 20260509192505 | 59 | 305 | 11.3 | 15.6 | 0.00 | 0.00 | 0.00 | 36 | 1012.4 |
| 20260509192005 | 59 | 310 | 13.0 | 15.6 | 0.00 | 0.00 | 0.00 | 36 | 1012.3 |
| 20260509191505 | 59 | 290 | 9.6 | 19.1 | 0.00 | 0.00 | 0.00 | 36 | 1012.3 |
| 20260509190006 | 60 | 285 | 13.0 | 18.2 | 0.00 | 0.00 | 0.00 | 34 | 1012.2 |
| 20260509185505 | 60 | 309 | 9.6 | 17.4 | 0.00 | 0.00 | 0.00 | 33 | 1012.1 |
| 20260509185005 | 61 | 281 | 12.2 | 18.2 | 0.00 | 0.00 | 0.00 | 34 | 1012.1 |
| 20260509184505 | 60 | 275 | 13.9 | 20.9 | 0.00 | 0.00 | 0.00 | 31 | 1012.0 |
| 20260509183505 | 60 | 286 | 17.4 | 20.9 | 0.00 | 0.00 | 0.00 | 31 | 1012.0 |
| 20260509183006 | 61 | 281 | 13.9 | 20.9 | 0.00 | 0.00 | 0.00 | 33 | 1011.9 |
| 20260509182504 | 60 | 285 | 11.3 | 21.7 | 0.00 | 0.00 | 0.00 | 34 | 1011.9 |
| 20260509182005 | 60 | 277 | 15.6 | 22.6 | 0.00 | 0.00 | 0.00 | 34 | 1011.9 |
| 20260509181505 | 60 | 278 | 12.2 | 22.6 | 0.00 | 0.00 | 0.00 | 35 | 1011.9 |
| 20260509181006 | 60 | 298 | 11.3 | 22.6 | 0.00 | 0.00 | 0.00 | 33 | 1011.9 |
| 20260509175505 | 59 | 286 | 9.6 | 22.6 | 0.00 | 0.00 | 0.00 | 33 | 1011.9 |
| 20260509175005 | 60 | 275 | 14.8 | 22.6 | 0.00 | 0.00 | 0.00 | 32 | 1012.1 |
| 20260509174505 | 59 | 292 | 10.4 | 20.9 | 0.00 | 0.00 | 0.00 | 35 | 1012.0 |
| 20260509174005 | 59 | 287 | 13.9 | 20.9 | 0.00 | 0.00 | 0.00 | 33 | 1012.0 |
| 20260509173505 | 59 | 289 | 13.9 | 17.4 | 0.00 | 0.00 | 0.00 | 34 | 1012.0 |
| 20260509173005 | 59 | 265 | 10.4 | 17.4 | 0.00 | 0.00 | 0.00 | 33 | 1012.0 |
| 20260509172005 | 58 | 310 | 10.4 | 17.4 | 0.00 | 0.00 | 0.00 | 36 | 1011.9 |
| 20260509171505 | 58 | 295 | 12.2 | 17.4 | 0.00 | 0.00 | 0.00 | 36 | 1012.0 |
| 20260509171005 | 58 | 285 | 11.3 | 17.4 | 0.00 | 0.00 | 0.00 | 35 | 1012.0 |
| 20260509170005 | 57 | 282 | 10.4 | 17.4 | 0.00 | 0.00 | 0.00 | 36 | 1012.0 |
| 20260509165505 | 58 | 287 | 11.3 | 17.4 | 0.00 | 0.00 | 0.00 | 35 | 1012.1 |
| 20260509164505 | 57 | 272 | 9.6 | 18.2 | 0.00 | 0.00 | 0.00 | 36 | 1012.0 |
| 20260509164005 | 57 | 270 | 11.3 | 18.2 | 0.00 | 0.00 | 0.00 | 35 | 1012.1 |
| 20260509163505 | 57 | 282 | 11.3 | 19.1 | 0.00 | 0.00 | 0.00 | 36 | 1012.1 |
| 20260509163005 | 57 | 277 | 11.3 | 19.1 | 0.00 | 0.00 | 0.00 | 37 | 1012.1 |
| 20260509162505 | 57 | 257 | 12.2 | 19.1 | 0.00 | 0.00 | 0.00 | 36 | 1011.9 |
| 20260509161505 | 56 | 292 | 10.4 | 17.4 | 0.00 | 0.00 | 0.00 | 38 | 1012.0 |
| 20260509161005 | 56 | 286 | 11.3 | 20.9 | 0.00 | 0.00 | 0.00 | 37 | 1012.0 |
| 20260509160005 | 56 | 274 | 13.9 | 20.9 | 0.00 | 0.00 | 0.00 | 37 | 1011.9 |
| 20260509155005 | 55 | 279 | 13.0 | 20.9 | 0.00 | 0.00 | 0.00 | 38 | 1011.8 |
| 20260509154504 | 55 | 291 | 13.0 | 20.9 | 0.00 | 0.00 | 0.00 | 37 | 1011.7 |
| 20260509154005 | 55 | 293 | 14.8 | 22.6 | 0.00 | 0.00 | 0.00 | 38 | 1011.7 |
| 20260509153005 | 55 | 287 | 17.4 | 26.1 | 0.00 | 0.00 | 0.00 | 38 | 1011.8 |
| 20260509152504 | 55 | 279 | 17.4 | 26.1 | 0.00 | 0.00 | 0.00 | 39 | 1011.7 |
| 20260509152005 | 54 | 263 | 17.4 | 22.6 | 0.00 | 0.00 | 0.00 | 39 | 1011.6 |
| 20260509151504 | 54 | 273 | 17.4 | 22.6 | 0.00 | 0.00 | 0.00 | 39 | 1011.5 |
| 20260509151005 | 54 | 269 | 14.8 | 24.3 | 0.00 | 0.00 | 0.00 | 39 | 1011.6 |
| 20260509150004 | 53 | 260 | 17.4 | 26.1 | 0.00 | 0.00 | 0.00 | 38 | 1011.4 |
| 20260509145505 | 53 | 255 | 18.2 | 26.1 | 0.00 | 0.00 | 0.00 | 38 | 1011.4 |
| 20260509144505 | 53 | 258 | 15.6 | 22.6 | 0.00 | 0.00 | 0.00 | 39 | 1011.3 |
| 20260509144005 | 53 | 252 | 12.2 | 21.7 | 0.00 | 0.00 | 0.00 | 39 | 1011.4 |
| 20260509143504 | 53 | 272 | 13.9 | 20.0 | 0.00 | 0.00 | 0.00 | 38 | 1011.5 |
| 20260509143005 | 53 | 269 | 13.9 | 17.4 | 0.00 | 0.00 | 0.00 | 38 | 1011.5 |
| 20260509142504 | 52 | 276 | 11.3 | 19.1 | 0.00 | 0.00 | 0.00 | 39 | 1011.4 |
| 20260509142005 | 52 | 272 | 12.2 | 19.1 | 0.00 | 0.00 | 0.00 | 38 | 1011.4 |
| 20260509141504 | 52 | 257 | 12.2 | 17.4 | 0.00 | 0.00 | 0.00 | 39 | 1011.3 |
| 20260509141005 | 52 | 263 | 11.3 | 17.4 | 0.00 | 0.00 | 0.00 | 39 | 1011.2 |
| 20260509140006 | 51 | 265 | 13.9 | 17.4 | 0.00 | 0.00 | 0.00 | 40 | 1011.2 |
| 20260509135005 | 51 | 263 | 11.3 | 21.7 | 0.00 | 0.00 | 0.00 | 39 | 1011.1 |
| 20260509134504 | 51 | 277 | 12.2 | 22.6 | 0.00 | 0.00 | 0.00 | 38 | 1011.1 |
| 20260509134004 | 51 | 264 | 15.6 | 22.6 | 0.00 | 0.00 | 0.00 | 38 | 1010.9 |
| 20260509133505 | 51 | 255 | 13.0 | 20.9 | 0.00 | 0.00 | 0.00 | 38 | 1010.9 |
| 20260509133005 | 51 | 251 | 14.8 | 20.9 | 0.00 | 0.00 | 0.00 | 37 | 1010.7 |
| 20260509132505 | 51 | 262 | 14.8 | 21.7 | 0.00 | 0.00 | 0.00 | 38 | 1010.7 |
| 20260509132005 | 50 | 256 | 13.0 | 21.7 | 0.00 | 0.00 | 0.00 | 38 | 1010.7 |
| 20260509131504 | 50 | 251 | 14.8 | 21.7 | 0.00 | 0.00 | 0.00 | 37 | 1010.6 |
| 20260509131005 | 50 | 252 | 12.2 | 19.1 | 0.00 | 0.00 | 0.00 | 39 | 1010.6 |
| 20260509130005 | 49 | 247 | 10.4 | 15.6 | 0.00 | 0.00 | 0.00 | 39 | 1010.7 |
| 20260509125505 | 49 | 246 | 11.3 | 15.6 | 0.00 | 0.00 | 0.00 | 40 | 1010.7 |
| 20260509125005 | 48 | 255 | 10.4 | 15.6 | 0.00 | 0.00 | 0.00 | 40 | 1010.7 |
| 20260509124505 | 48 | 250 | 10.4 | 13.9 | 0.00 | 0.00 | 0.00 | 41 | 1010.7 |
| 20260509124005 | 48 | 250 | 10.4 | 13.0 | 0.00 | 0.00 | 0.00 | 41 | 1010.7 |
| 20260509123504 | 48 | 251 | 8.7 | 13.0 | 0.00 | 0.00 | 0.00 | 42 | 1010.6 |
| 20260509122504 | 48 | 245 | 8.7 | 13.9 | 0.00 | 0.00 | 0.00 | 42 | 1010.5 |
| 20260509121504 | 48 | 246 | 11.3 | 15.6 | 0.00 | 0.00 | 0.00 | 41 | 1010.2 |
| 20260509121005 | 48 | 254 | 11.3 | 18.2 | 0.00 | 0.00 | 0.00 | 40 | 1010.2 |
| 20260509120005 | 49 | 250 | 11.3 | 15.6 | 0.00 | 0.00 | 0.00 | 40 | 1010.0 |
| 20260509115504 | 49 | 253 | 10.4 | 15.6 | 0.00 | 0.00 | 0.00 | 41 | 1010.0 |
| 20260509115005 | 49 | 240 | 8.7 | 15.6 | 0.00 | 0.00 | 0.00 | 40 | 1010.0 |
| 20260509114505 | 49 | 250 | 11.3 | 15.6 | 0.00 | 0.00 | 0.00 | 40 | 1009.9 |
| 20260509114005 | 49 | 238 | 8.7 | 15.6 | 0.00 | 0.00 | 0.00 | 40 | 1009.8 |
| 20260509113505 | 50 | 249 | 11.3 | 17.4 | 0.00 | 0.00 | 0.00 | 40 | 1009.8 |
| 20260509113005 | 50 | 262 | 10.4 | 17.4 | 0.00 | 0.00 | 0.00 | 39 | 1009.8 |
| 20260509112005 | 50 | 266 | 13.0 | 17.4 | 0.00 | 0.00 | 0.00 | 39 | 1009.7 |
| 20260509111504 | 50 | 254 | 13.0 | 17.4 | 0.00 | 0.00 | 0.00 | 40 | 1009.7 |
| 20260509111005 | 50 | 249 | 13.9 | 17.4 | 0.00 | 0.00 | 0.00 | 41 | 1009.6 |
| 20260509105505 | 50 | 257 | 11.3 | 13.9 | 0.00 | 0.00 | 0.00 | 41 | 1009.4 |
| 20260509105004 | 51 | 257 | 7.8 | 13.9 | 0.00 | 0.00 | 0.00 | 40 | 1009.3 |
| 20260509104504 | 51 | 273 | 11.3 | 13.9 | 0.00 | 0.00 | 0.00 | 40 | 1009.3 |
| 20260509104005 | 51 | 271 | 8.7 | 12.2 | 0.00 | 0.00 | 0.00 | 40 | 1009.3 |
| 20260509103504 | 52 | 302 | 7.0 | 12.2 | 0.00 | 0.00 | 0.00 | 38 | 1009.2 |
| 20260509103004 | 52 | 281 | 7.8 | 15.6 | 0.00 | 0.00 | 0.00 | 37 | 1009.2 |
| 20260509102505 | 52 | 291 | 8.7 | 15.6 | 0.00 | 0.00 | 0.00 | 38 | 1009.1 |
| 20260509102005 | 52 | 279 | 10.4 | 15.6 | 0.00 | 0.00 | 0.00 | 39 | 1009.1 |
| 20260509101005 | 52 | 294 | 9.6 | 14.8 | 0.00 | 0.00 | 0.00 | 41 | 1008.8 |
| 20260509100005 | 52 | 267 | 10.4 | 13.9 | 0.00 | 0.00 | 0.00 | 43 | 1008.8 |
| 20260509095505 | 52 | 267 | 11.3 | 15.6 | 0.00 | 0.00 | 0.00 | 43 | 1008.6 |
| 20260509095005 | 52 | 264 | 10.4 | 15.6 | 0.00 | 0.00 | 0.00 | 45 | 1008.6 |
| 20260509094004 | 52 | 278 | 11.3 | 15.6 | 0.00 | 0.00 | 0.00 | 45 | 1008.4 |
| 20260509093505 | 53 | 253 | 12.2 | 19.1 | 0.00 | 0.00 | 0.00 | 46 | 1008.3 |
| 20260509092505 | 53 | 273 | 12.2 | 17.4 | 0.00 | 0.00 | 0.00 | 46 | 1008.1 |
| 20260509092004 | 53 | 276 | 11.3 | 17.4 | 0.00 | 0.00 | 0.00 | 48 | 1008.0 |
| 20260509091504 | 53 | 256 | 12.2 | 17.4 | 0.00 | 0.00 | 0.00 | 50 | 1008.0 |
| 20260509090005 | 53 | 265 | 11.3 | 17.4 | 0.00 | 0.00 | 0.00 | 52 | 1007.8 |
| 20260509085504 | 53 | 263 | 12.2 | 17.4 | 0.00 | 0.00 | 0.00 | 52 | 1007.7 |
| 20260509084504 | 53 | 267 | 12.2 | 17.4 | 0.00 | 0.00 | 0.00 | 53 | 1007.6 |
| 20260509083505 | 53 | 247 | 12.2 | 19.1 | 0.00 | 0.00 | 0.00 | 52 | 1007.5 |
| 20260509083004 | 54 | 262 | 11.3 | 17.4 | 0.00 | 0.00 | 0.00 | 52 | 1007.5 |
| 20260509082505 | 54 | 262 | 11.3 | 17.4 | 0.00 | 0.00 | 0.00 | 52 | 1007.4 |
| 20260509082004 | 54 | 254 | 12.2 | 17.4 | 0.00 | 0.00 | 0.00 | 52 | 1007.4 |
| 20260509081505 | 54 | 262 | 10.4 | 17.4 | 0.00 | 0.00 | 0.00 | 51 | 1007.4 |
| 20260509080005 | 55 | 266 | 13.9 | 17.4 | 0.00 | 0.00 | 0.00 | 50 | 1007.6 |
| 20260509075505 | 55 | 249 | 13.0 | 17.4 | 0.00 | 0.00 | 0.00 | 50 | 1007.6 |
| 20260509075005 | 54 | 261 | 12.2 | 14.8 | 0.00 | 0.00 | 0.00 | 50 | 1007.6 |
| 20260509074504 | 55 | 250 | 10.4 | 14.8 | 0.00 | 0.00 | 0.00 | 50 | 1007.6 |
| 20260509073505 | 55 | 263 | 7.0 | 13.0 | 0.00 | 0.00 | 0.00 | 49 | 1007.6 |
| 20260509073004 | 55 | 262 | 7.0 | 10.4 | 0.00 | 0.00 | 0.00 | 49 | 1007.6 |
| 20260509072504 | 55 | 257 | 8.7 | 10.4 | 0.00 | 0.00 | 0.00 | 48 | 1007.7 |
| 20260509072004 | 56 | 255 | 7.8 | 11.3 | 0.00 | 0.00 | 0.00 | 48 | 1007.7 |
| 20260509071505 | 56 | 263 | 7.8 | 12.2 | 0.00 | 0.00 | 0.00 | 47 | 1007.6 |
| 20260509071004 | 56 | 256 | 7.8 | 12.2 | 0.00 | 0.00 | 0.00 | 47 | 1007.6 |
| 20260509070005 | 57 | 239 | 7.0 | 10.4 | 0.00 | 0.00 | 0.00 | 47 | 1007.4 |
| 20260509065505 | 57 | 266 | 7.8 | 10.4 | 0.00 | 0.00 | 0.00 | 47 | 1007.4 |
| 20260509065004 | 56 | 249 | 7.8 | 10.4 | 0.00 | 0.00 | 0.00 | 47 | 1007.4 |
| 20260509064504 | 56 | 254 | 5.2 | 10.4 | 0.00 | 0.00 | 0.00 | 49 | 1007.4 |
| 20260509064004 | 56 | 241 | 4.3 | 7.0 | 0.00 | 0.00 | 0.00 | 50 | 1007.4 |
| 20260509063504 | 56 | 236 | 4.3 | 7.8 | 0.00 | 0.00 | 0.00 | 50 | 1007.3 |
| 20260509063005 | 56 | 230 | 4.3 | 7.8 | 0.00 | 0.00 | 0.00 | 50 | 1007.3 |
| 20260509062505 | 56 | 213 | 1.7 | 4.3 | 0.00 | 0.00 | 0.00 | 50 | 1007.2 |
| 20260509062005 | 56 | 211 | 2.6 | 5.2 | 0.00 | 0.00 | 0.00 | 49 | 1007.2 |
| 20260509060005 | 57 | 233 | 2.6 | 8.7 | 0.00 | 0.00 | 0.00 | 46 | 1007.2 |
| 20260509055504 | 58 | 231 | 4.3 | 10.4 | 0.00 | 0.00 | 0.00 | 45 | 1007.3 |
| 20260509055004 | 58 | 240 | 5.2 | 10.4 | 0.00 | 0.00 | 0.00 | 44 | 1007.3 |
| 20260509054504 | 59 | 265 | 7.0 | 12.2 | 0.00 | 0.00 | 0.00 | 42 | 1007.3 |
| 20260509054004 | 59 | 275 | 6.1 | 12.2 | 0.00 | 0.00 | 0.00 | 42 | 1007.3 |
| 20260509053505 | 58 | 281 | 8.7 | 12.2 | 0.00 | 0.00 | 0.00 | 41 | 1007.2 |
| 20260509053004 | 59 | 293 | 7.8 | 15.6 | 0.00 | 0.00 | 0.00 | 42 | 1007.2 |
| 20260509052504 | 59 | 300 | 11.3 | 15.6 | 0.00 | 0.00 | 0.00 | 42 | 1007.1 |
| 20260509052005 | 59 | 315 | 8.7 | 14.8 | 0.00 | 0.00 | 0.00 | 42 | 1007.1 |
| 20260509051504 | 59 | 298 | 11.3 | 14.8 | 0.00 | 0.00 | 0.00 | 42 | 1006.9 |
| 20260509051005 | 58 | 281 | 10.4 | 14.8 | 0.00 | 0.00 | 0.00 | 45 | 1007.0 |
| 20260509050005 | 58 | 277 | 9.6 | 12.2 | 0.00 | 0.00 | 0.00 | 45 | 1007.0 |
| 20260509045504 | 58 | 278 | 7.0 | 10.4 | 0.00 | 0.00 | 0.00 | 46 | 1007.1 |
| 20260509044504 | 58 | 263 | 7.8 | 14.8 | 0.00 | 0.00 | 0.00 | 45 | 1007.2 |
| 20260509044004 | 59 | 274 | 9.6 | 14.8 | 0.00 | 0.00 | 0.00 | 44 | 1007.2 |
| 20260509043504 | 59 | 274 | 8.7 | 14.8 | 0.00 | 0.00 | 0.00 | 45 | 1007.2 |
| 20260509043005 | 59 | 259 | 7.8 | 15.6 | 0.00 | 0.00 | 0.00 | 45 | 1007.2 |
| 20260509042504 | 59 | 257 | 11.3 | 15.6 | 0.00 | 0.00 | 0.00 | 45 | 1007.3 |
| 20260509042005 | 59 | 276 | 8.7 | 13.0 | 0.00 | 0.00 | 0.00 | 45 | 1007.3 |
| 20260509041504 | 59 | 271 | 8.7 | 13.9 | 0.00 | 0.00 | 0.00 | 45 | 1007.3 |
| 20260509041005 | 59 | 270 | 9.6 | 13.9 | 0.00 | 0.00 | 0.00 | 45 | 1007.3 |
| 20260509035504 | 59 | 271 | 7.0 | 11.3 | 0.00 | 0.00 | 0.00 | 43 | 1007.2 |
| 20260509035005 | 60 | 274 | 7.0 | 11.3 | 0.00 | 0.00 | 0.00 | 42 | 1007.1 |
| 20260509034504 | 60 | 259 | 7.8 | 12.2 | 0.00 | 0.00 | 0.00 | 42 | 1007.0 |
| 20260509034005 | 60 | 265 | 6.1 | 12.2 | 0.00 | 0.00 | 0.00 | 41 | 1007.0 |
| 20260509033005 | 61 | 288 | 7.8 | 14.8 | 0.00 | 0.00 | 0.00 | 39 | 1007.1 |
| 20260509032005 | 62 | 295 | 8.7 | 14.8 | 0.00 | 0.00 | 0.00 | 38 | 1006.8 |
| 20260509031504 | 62 | 293 | 9.6 | 20.0 | 0.00 | 0.00 | 0.00 | 36 | 1006.8 |
| 20260509031004 | 63 | 288 | 11.3 | 20.0 | 0.00 | 0.00 | 0.00 | 34 | 1006.8 |
| 20260509030004 | 63 | 285 | 11.3 | 17.4 | 0.00 | 0.00 | 0.00 | 34 | 1006.5 |
| 20260509025504 | 63 | 257 | 6.1 | 14.8 | 0.00 | 0.00 | 0.00 | 33 | 1006.3 |
| 20260509025005 | 63 | 277 | 7.8 | 13.9 | 0.00 | 0.00 | 0.00 | 33 | 1006.2 |
| 20260509024504 | 62 | 281 | 9.6 | 13.9 | 0.00 | 0.00 | 0.00 | 33 | 1006.2 |
| 20260509024005 | 62 | 266 | 7.8 | 11.3 | 0.00 | 0.00 | 0.00 | 36 | 1006.2 |
| 20260509023504 | 62 | 270 | 7.8 | 11.3 | 0.00 | 0.00 | 0.00 | 35 | 1006.1 |
| 20260509023004 | 62 | 266 | 7.0 | 10.4 | 0.00 | 0.00 | 0.00 | 36 | 1006.0 |
| 20260509022504 | 62 | 254 | 7.8 | 10.4 | 0.00 | 0.00 | 0.00 | 36 | 1005.8 |
| 20260509021504 | 63 | 261 | 7.0 | 10.4 | 0.00 | 0.00 | 0.00 | 34 | 1005.7 |
| 20260509021004 | 63 | 272 | 5.2 | 7.8 | 0.00 | 0.00 | 0.00 | 34 | 1005.7 |
| 20260509020004 | 64 | 278 | 5.2 | 10.4 | 0.00 | 0.00 | 0.00 | 33 | 1005.7 |
| 20260509015504 | 64 | 303 | 6.1 | 10.4 | 0.00 | 0.00 | 0.00 | 32 | 1005.7 |
| 20260509015004 | 64 | 283 | 6.1 | 8.7 | 0.00 | 0.00 | 0.00 | 32 | 1005.7 |
| 20260509014504 | 64 | 288 | 5.2 | 8.7 | 0.00 | 0.00 | 0.00 | 32 | 1005.7 |
| 20260509014004 | 64 | 289 | 5.2 | 10.4 | 0.00 | 0.01 | 0.00 | 32 | 1005.7 |
| 20260509013504 | 64 | 282 | 5.2 | 10.4 | 0.00 | 0.01 | 0.00 | 31 | 1005.8 |
| 20260509013004 | 64 | 281 | 7.0 | 10.4 | 0.00 | 0.01 | 0.00 | 31 | 1005.8 |
| 20260509012004 | 65 | 294 | 7.0 | 10.4 | 0.00 | 0.01 | 0.00 | 31 | 1005.8 |
| 20260509011505 | 65 | 290 | 6.1 | 8.7 | 0.00 | 0.01 | 0.00 | 30 | 1005.8 |
| 20260509011004 | 65 | 296 | 6.1 | 10.4 | 0.00 | 0.01 | 0.00 | 31 | 1005.8 |
| 20260509005504 | 66 | 282 | 6.1 | 10.4 | 0.00 | 0.01 | 0.00 | 30 | 1005.9 |
| 20260509005004 | 66 | 305 | 6.1 | 12.2 | 0.00 | 0.01 | 0.00 | 30 | 1005.9 |
| 20260509004504 | 66 | 297 | 6.1 | 12.2 | 0.00 | 0.01 | 0.00 | 30 | 1006.0 |
| 20260509004004 | 66 | 283 | 8.7 | 11.3 | 0.00 | 0.01 | 0.00 | 29 | 1006.1 |
| 20260509003004 | 66 | 286 | 6.1 | 11.3 | 0.00 | 0.01 | 0.00 | 29 | 1006.2 |
| 20260509002505 | 66 | 278 | 6.1 | 12.2 | 0.00 | 0.01 | 0.00 | 30 | 1006.2 |
| 20260509002004 | 66 | 306 | 7.8 | 13.9 | 0.00 | 0.01 | 0.00 | 29 | 1006.3 |
| 20260509001504 | 66 | 298 | 9.6 | 13.9 | 0.00 | 0.02 | 0.00 | 28 | 1006.3 |
| 20260509001004 | 66 | 298 | 8.7 | 13.9 | 0.00 | 0.02 | 0.00 | 29 | 1006.3 |
| 20260509000004 | 67 | 283 | 10.4 | 15.6 | 0.00 | 0.02 | 0.00 | 28 | 1006.4 |
| 20260508235005 | 67 | 296 | 8.7 | 14.8 | 0.00 | 0.02 | 0.00 | 28 | 1006.4 |
| 20260508234504 | 67 | 290 | 11.3 | 14.8 | 0.00 | 0.02 | 0.00 | 28 | 1006.4 |
| 20260508234005 | 67 | 311 | 10.4 | 17.4 | 0.00 | 0.02 | 0.00 | 27 | 1006.4 |
| 20260508233005 | 68 | 286 | 13.0 | 17.4 | 0.00 | 0.02 | 0.00 | 26 | 1006.4 |
| 20260508232505 | 68 | 297 | 7.8 | 15.6 | 0.00 | 0.02 | 0.00 | 26 | 1006.4 |
| 20260508232005 | 68 | 291 | 9.6 | 17.4 | 0.00 | 0.02 | 0.00 | 25 | 1006.4 |
| 20260508231505 | 68 | 282 | 12.2 | 20.0 | 0.00 | 0.02 | 0.00 | 24 | 1006.4 |
| 20260508231005 | 68 | 281 | 13.0 | 20.0 | 0.00 | 0.02 | 0.00 | 23 | 1006.4 |
| 20260508230005 | 69 | 281 | 16.5 | 21.7 | 0.00 | 0.02 | 0.00 | 21 | 1006.5 |
| 20260508225505 | 70 | 293 | 13.0 | 20.9 | 0.00 | 0.02 | 0.00 | 21 | 1006.4 |